owner,sensor,date,latitude,longitude,vertical_datum,sea_water_practical_salinity,qcFlag 
ENP,ioos.station.NOAA.NDBC:TCVF1:1,2019-08-01T01:00:00Z,25.2130,-80.5330,1.5,25.21,11111222 
ENP,ioos.station.NOAA.NDBC:TCVF1:1,2019-08-01T03:00:00Z,25.2130,-80.5330,1.5,22.48,11111222 
ENP,ioos.station.NOAA.NDBC:TCVF1:1,2019-08-01T04:00:00Z,25.2130,-80.5330,1.5,21.44,11111222 
ENP,ioos.station.NOAA.NDBC:TCVF1:1,2019-08-01T05:00:00Z,25.2130,-80.5330,1.5,20.82,11111222 
ENP,ioos.station.NOAA.NDBC:TCVF1:1,2019-08-01T06:00:00Z,25.2130,-80.5330,1.5,20.82,11111222 
ENP,ioos.station.NOAA.NDBC:TCVF1:1,2019-08-01T07:00:00Z,25.2130,-80.5330,1.5,22.27,11111222 
ENP,ioos.station.NOAA.NDBC:TCVF1:1,2019-08-01T08:00:00Z,25.2130,-80.5330,1.5,24.58,11111222 
ENP,ioos.station.NOAA.NDBC:TCVF1:1,2019-08-01T09:00:00Z,25.2130,-80.5330,1.5,29.92,11111222 
ENP,ioos.station.NOAA.NDBC:TCVF1:1,2019-08-01T10:00:00Z,25.2130,-80.5330,1.5,25.49,11111222 
ENP,ioos.station.NOAA.NDBC:TCVF1:1,2019-08-01T11:00:00Z,25.2130,-80.5330,1.5,19.93,11111222 
ENP,ioos.station.NOAA.NDBC:TCVF1:1,2019-08-01T12:00:00Z,25.2130,-80.5330,1.5,19.52,11111222 
ENP,ioos.station.NOAA.NDBC:TCVF1:1,2019-08-01T13:00:00Z,25.2130,-80.5330,1.5,18.36,11111222 
ENP,ioos.station.NOAA.NDBC:TCVF1:1,2019-08-01T14:00:00Z,25.2130,-80.5330,1.5,23.81,11111222 
ENP,ioos.station.NOAA.NDBC:TCVF1:1,2019-08-01T15:00:00Z,25.2130,-80.5330,1.5,19.93,11111222 
ENP,ioos.station.NOAA.NDBC:TCVF1:1,2019-08-01T16:00:00Z,25.2130,-80.5330,1.5,29.49,11111222 
ENP,ioos.station.NOAA.NDBC:TCVF1:1,2019-08-01T17:00:00Z,25.2130,-80.5330,1.5,30.13,11111222 
ENP,ioos.station.NOAA.NDBC:TCVF1:1,2019-08-01T18:00:00Z,25.2130,-80.5330,1.5,21.93,11111222 
ENP,ioos.station.NOAA.NDBC:TCVF1:1,2019-08-01T19:00:00Z,25.2130,-80.5330,1.5,29.05,11111222 
ENP,ioos.station.NOAA.NDBC:TCVF1:1,2019-08-01T20:00:00Z,25.2130,-80.5330,1.5,30.42,11111222 
ENP,ioos.station.NOAA.NDBC:TCVF1:1,2019-08-01T21:00:00Z,25.2130,-80.5330,1.5,30.64,11111222 
ENP,ioos.station.NOAA.NDBC:TCVF1:1,2019-08-01T22:00:00Z,25.2130,-80.5330,1.5,27.48,11111222 
ENP,ioos.station.NOAA.NDBC:TCVF1:1,2019-08-01T23:00:00Z,25.2130,-80.5330,1.5,20.89,11111222 
ENP,ioos.station.NOAA.NDBC:TCVF1:1,2019-08-02T00:00:00Z,25.2130,-80.5330,1.5,19.72,11111222 
ENP,ioos.station.NOAA.NDBC:TCVF1:1,2019-08-02T01:00:00Z,25.2130,-80.5330,1.5,19.45,11111222 
ENP,ioos.station.NOAA.NDBC:TCVF1:1,2019-08-02T03:00:00Z,25.2130,-80.5330,1.5,18.97,11111222 
ENP,ioos.station.NOAA.NDBC:TCVF1:1,2019-08-02T04:00:00Z,25.2130,-80.5330,1.5,26.98,11111222 
ENP,ioos.station.NOAA.NDBC:TCVF1:1,2019-08-02T05:00:00Z,25.2130,-80.5330,1.5,29.05,11111222 
ENP,ioos.station.NOAA.NDBC:TCVF1:1,2019-08-02T06:00:00Z,25.2130,-80.5330,1.5,29.63,11111222 
ENP,ioos.station.NOAA.NDBC:TCVF1:1,2019-08-02T07:00:00Z,25.2130,-80.5330,1.5,29.7,11111222 
ENP,ioos.station.NOAA.NDBC:TCVF1:1,2019-08-02T08:00:00Z,25.2130,-80.5330,1.5,29.85,11111222 
ENP,ioos.station.NOAA.NDBC:TCVF1:1,2019-08-02T09:00:00Z,25.2130,-80.5330,1.5,29.85,11111222 
ENP,ioos.station.NOAA.NDBC:TCVF1:1,2019-08-02T10:00:00Z,25.2130,-80.5330,1.5,29.63,11111222 
ENP,ioos.station.NOAA.NDBC:TCVF1:1,2019-08-02T11:00:00Z,25.2130,-80.5330,1.5,24.02,11111222 
ENP,ioos.station.NOAA.NDBC:TCVF1:1,2019-08-02T12:00:00Z,25.2130,-80.5330,1.5,22.9,11111222 
ENP,ioos.station.NOAA.NDBC:TCVF1:1,2019-08-02T13:00:00Z,25.2130,-80.5330,1.5,22.83,11111222 
ENP,ioos.station.NOAA.NDBC:TCVF1:1,2019-08-02T14:00:00Z,25.2130,-80.5330,1.5,25.35,11111222 
ENP,ioos.station.NOAA.NDBC:TCVF1:1,2019-08-02T15:00:00Z,25.2130,-80.5330,1.5,31.66,11111222 
ENP,ioos.station.NOAA.NDBC:TCVF1:1,2019-08-02T16:00:00Z,25.2130,-80.5330,1.5,32.17,11111222 
ENP,ioos.station.NOAA.NDBC:TCVF1:1,2019-08-02T17:00:00Z,25.2130,-80.5330,1.5,32.17,11111222 
ENP,ioos.station.NOAA.NDBC:TCVF1:1,2019-08-02T18:00:00Z,25.2130,-80.5330,1.5,32.31,11111222 
ENP,ioos.station.NOAA.NDBC:TCVF1:1,2019-08-02T19:00:00Z,25.2130,-80.5330,1.5,32.24,11111222 
ENP,ioos.station.NOAA.NDBC:TCVF1:1,2019-08-02T20:00:00Z,25.2130,-80.5330,1.5,31.8,11111222 
ENP,ioos.station.NOAA.NDBC:TCVF1:1,2019-08-02T21:00:00Z,25.2130,-80.5330,1.5,30.86,11111222 
ENP,ioos.station.NOAA.NDBC:TCVF1:1,2019-08-02T22:00:00Z,25.2130,-80.5330,1.5,31.15,11111222 
ENP,ioos.station.NOAA.NDBC:TCVF1:1,2019-08-02T23:00:00Z,25.2130,-80.5330,1.5,31.66,11111222 
ENP,ioos.station.NOAA.NDBC:TCVF1:1,2019-08-03T01:00:00Z,25.2130,-80.5330,1.5,32.75,11111222 
ENP,ioos.station.NOAA.NDBC:TCVF1:1,2019-08-03T03:00:00Z,25.2130,-80.5330,1.5,33.19,11111222 
ENP,ioos.station.NOAA.NDBC:TCVF1:1,2019-08-03T04:00:00Z,25.2130,-80.5330,1.5,34.0,11111222 
ENP,ioos.station.NOAA.NDBC:TCVF1:1,2019-08-03T05:00:00Z,25.2130,-80.5330,1.5,34.14,11111222 
ENP,ioos.station.NOAA.NDBC:TCVF1:1,2019-08-03T06:00:00Z,25.2130,-80.5330,1.5,33.63,11111222 
ENP,ioos.station.NOAA.NDBC:TCVF1:1,2019-08-03T07:00:00Z,25.2130,-80.5330,1.5,33.77,11111222 
ENP,ioos.station.NOAA.NDBC:TCVF1:1,2019-08-03T08:00:00Z,25.2130,-80.5330,1.5,33.85,11111222 
ENP,ioos.station.NOAA.NDBC:TCVF1:1,2019-08-03T09:00:00Z,25.2130,-80.5330,1.5,33.85,11111222 
ENP,ioos.station.NOAA.NDBC:TCVF1:1,2019-08-03T10:00:00Z,25.2130,-80.5330,1.5,34.14,11111222 
ENP,ioos.station.NOAA.NDBC:TCVF1:1,2019-08-03T11:00:00Z,25.2130,-80.5330,1.5,34.51,11111222 
ENP,ioos.station.NOAA.NDBC:TCVF1:1,2019-08-03T12:00:00Z,25.2130,-80.5330,1.5,34.8,11111222 
ENP,ioos.station.NOAA.NDBC:TCVF1:1,2019-08-03T13:00:00Z,25.2130,-80.5330,1.5,34.88,11111222 
ENP,ioos.station.NOAA.NDBC:TCVF1:1,2019-08-03T14:00:00Z,25.2130,-80.5330,1.5,34.95,11111222 
ENP,ioos.station.NOAA.NDBC:TCVF1:1,2019-08-03T15:00:00Z,25.2130,-80.5330,1.5,34.95,11111222 
ENP,ioos.station.NOAA.NDBC:TCVF1:1,2019-08-03T16:00:00Z,25.2130,-80.5330,1.5,35.03,11111222 
ENP,ioos.station.NOAA.NDBC:TCVF1:1,2019-08-03T17:00:00Z,25.2130,-80.5330,1.5,35.1,11111222 
ENP,ioos.station.NOAA.NDBC:TCVF1:1,2019-08-03T18:00:00Z,25.2130,-80.5330,1.5,35.1,11111222 
ENP,ioos.station.NOAA.NDBC:TCVF1:1,2019-08-03T19:00:00Z,25.2130,-80.5330,1.5,35.25,11111222 
ENP,ioos.station.NOAA.NDBC:TCVF1:1,2019-08-03T20:00:00Z,25.2130,-80.5330,1.5,35.54,11111222 
ENP,ioos.station.NOAA.NDBC:TCVF1:1,2019-08-03T21:00:00Z,25.2130,-80.5330,1.5,35.47,11111222 
ENP,ioos.station.NOAA.NDBC:TCVF1:1,2019-08-03T22:00:00Z,25.2130,-80.5330,1.5,35.32,11111222 
ENP,ioos.station.NOAA.NDBC:TCVF1:1,2019-08-03T23:00:00Z,25.2130,-80.5330,1.5,35.17,11111222 
ENP,ioos.station.NOAA.NDBC:TCVF1:1,2019-08-04T01:00:00Z,25.2130,-80.5330,1.5,35.77,11111222 
ENP,ioos.station.NOAA.NDBC:TCVF1:1,2019-08-04T03:00:00Z,25.2130,-80.5330,1.5,36.58,11111222 
ENP,ioos.station.NOAA.NDBC:TCVF1:1,2019-08-04T04:00:00Z,25.2130,-80.5330,1.5,36.21,11111222 
ENP,ioos.station.NOAA.NDBC:TCVF1:1,2019-08-04T05:00:00Z,25.2130,-80.5330,1.5,35.77,11111222 
ENP,ioos.station.NOAA.NDBC:TCVF1:1,2019-08-04T06:00:00Z,25.2130,-80.5330,1.5,35.77,11111222 
ENP,ioos.station.NOAA.NDBC:TCVF1:1,2019-08-04T07:00:00Z,25.2130,-80.5330,1.5,35.62,11111222 
ENP,ioos.station.NOAA.NDBC:TCVF1:1,2019-08-04T08:00:00Z,25.2130,-80.5330,1.5,35.47,11111222 
ENP,ioos.station.NOAA.NDBC:TCVF1:1,2019-08-04T09:00:00Z,25.2130,-80.5330,1.5,35.4,11111222 
ENP,ioos.station.NOAA.NDBC:TCVF1:1,2019-08-04T10:00:00Z,25.2130,-80.5330,1.5,35.47,11111222 
ENP,ioos.station.NOAA.NDBC:TCVF1:1,2019-08-04T11:00:00Z,25.2130,-80.5330,1.5,35.54,11111222 
ENP,ioos.station.NOAA.NDBC:TCVF1:1,2019-08-04T12:00:00Z,25.2130,-80.5330,1.5,35.62,11111222 
ENP,ioos.station.NOAA.NDBC:TCVF1:1,2019-08-04T13:00:00Z,25.2130,-80.5330,1.5,35.84,11111222 
ENP,ioos.station.NOAA.NDBC:TCVF1:1,2019-08-04T14:00:00Z,25.2130,-80.5330,1.5,35.99,11111222 
ENP,ioos.station.NOAA.NDBC:TCVF1:1,2019-08-04T15:00:00Z,25.2130,-80.5330,1.5,36.06,11111222 
ENP,ioos.station.NOAA.NDBC:TCVF1:1,2019-08-04T16:00:00Z,25.2130,-80.5330,1.5,36.21,11111222 
ENP,ioos.station.NOAA.NDBC:TCVF1:1,2019-08-04T17:00:00Z,25.2130,-80.5330,1.5,36.21,11111222 
ENP,ioos.station.NOAA.NDBC:TCVF1:1,2019-08-04T18:00:00Z,25.2130,-80.5330,1.5,36.21,11111222 
ENP,ioos.station.NOAA.NDBC:TCVF1:1,2019-08-04T19:00:00Z,25.2130,-80.5330,1.5,36.14,11111222 
ENP,ioos.station.NOAA.NDBC:TCVF1:1,2019-08-04T20:00:00Z,25.2130,-80.5330,1.5,36.06,11111222 
ENP,ioos.station.NOAA.NDBC:TCVF1:1,2019-08-04T21:00:00Z,25.2130,-80.5330,1.5,36.66,11111222 
ENP,ioos.station.NOAA.NDBC:TCVF1:1,2019-08-04T22:00:00Z,25.2130,-80.5330,1.5,35.99,11111222 
ENP,ioos.station.NOAA.NDBC:TCVF1:1,2019-08-05T00:00:00Z,25.2130,-80.5330,1.5,35.77,11111222 
ENP,ioos.station.NOAA.NDBC:TCVF1:1,2019-08-05T01:00:00Z,25.2130,-80.5330,1.5,34.58,11111222 
ENP,ioos.station.NOAA.NDBC:TCVF1:1,2019-08-05T03:00:00Z,25.2130,-80.5330,1.5,31.73,11111222 
ENP,ioos.station.NOAA.NDBC:TCVF1:1,2019-08-05T04:00:00Z,25.2130,-80.5330,1.5,29.92,11111222 
ENP,ioos.station.NOAA.NDBC:TCVF1:1,2019-08-05T05:00:00Z,25.2130,-80.5330,1.5,29.27,11111222 
ENP,ioos.station.NOAA.NDBC:TCVF1:1,2019-08-05T06:00:00Z,25.2130,-80.5330,1.5,33.55,11111222 
ENP,ioos.station.NOAA.NDBC:TCVF1:1,2019-08-05T14:00:00Z,25.2130,-80.5330,1.5,30.64,11111222 
ENP,ioos.station.NOAA.NDBC:TCVF1:1,2019-08-05T15:00:00Z,25.2130,-80.5330,1.5,28.91,11111222 
ENP,ioos.station.NOAA.NDBC:TCVF1:1,2019-08-05T16:00:00Z,25.2130,-80.5330,1.5,27.84,11111222 
ENP,ioos.station.NOAA.NDBC:TCVF1:1,2019-08-05T17:00:00Z,25.2130,-80.5330,1.5,26.7,11111222 
ENP,ioos.station.NOAA.NDBC:TCVF1:1,2019-08-05T18:00:00Z,25.2130,-80.5330,1.5,25.85,11111222 
ENP,ioos.station.NOAA.NDBC:TCVF1:1,2019-08-05T19:00:00Z,25.2130,-80.5330,1.5,33.48,11111222 
ENP,ioos.station.NOAA.NDBC:TCVF1:1,2019-08-05T20:00:00Z,25.2130,-80.5330,1.5,26.13,11111222 
ENP,ioos.station.NOAA.NDBC:TCVF1:1,2019-08-05T21:00:00Z,25.2130,-80.5330,1.5,33.33,11111222 
ENP,ioos.station.NOAA.NDBC:TCVF1:1,2019-08-05T22:00:00Z,25.2130,-80.5330,1.5,34.88,11111222 
ENP,ioos.station.NOAA.NDBC:TCVF1:1,2019-08-05T23:00:00Z,25.2130,-80.5330,1.5,26.77,11111222 
ENP,ioos.station.NOAA.NDBC:TCVF1:1,2019-08-06T00:00:00Z,25.2130,-80.5330,1.5,24.16,11111222 
ENP,ioos.station.NOAA.NDBC:TCVF1:1,2019-08-06T01:00:00Z,25.2130,-80.5330,1.5,23.46,11111222 
ENP,ioos.station.NOAA.NDBC:TCVF1:1,2019-08-06T03:00:00Z,25.2130,-80.5330,1.5,33.19,11111222 
ENP,ioos.station.NOAA.NDBC:TCVF1:1,2019-08-06T04:00:00Z,25.2130,-80.5330,1.5,23.11,11111222 
ENP,ioos.station.NOAA.NDBC:TCVF1:1,2019-08-06T05:00:00Z,25.2130,-80.5330,1.5,34.0,11111222 
ENP,ioos.station.NOAA.NDBC:TCVF1:1,2019-08-06T06:00:00Z,25.2130,-80.5330,1.5,34.88,11111222 
ENP,ioos.station.NOAA.NDBC:TCVF1:1,2019-08-06T07:00:00Z,25.2130,-80.5330,1.5,35.03,11111222 
ENP,ioos.station.NOAA.NDBC:TCVF1:1,2019-08-06T08:00:00Z,25.2130,-80.5330,1.5,30.35,11111222 
ENP,ioos.station.NOAA.NDBC:TCVF1:1,2019-08-06T09:00:00Z,25.2130,-80.5330,1.5,34.0,11111222 
ENP,ioos.station.NOAA.NDBC:TCVF1:1,2019-08-06T10:00:00Z,25.2130,-80.5330,1.5,34.8,11111222 
ENP,ioos.station.NOAA.NDBC:TCVF1:1,2019-08-06T11:00:00Z,25.2130,-80.5330,1.5,34.88,11111222 
ENP,ioos.station.NOAA.NDBC:TCVF1:1,2019-08-06T12:00:00Z,25.2130,-80.5330,1.5,34.88,11111222 
ENP,ioos.station.NOAA.NDBC:TCVF1:1,2019-08-06T13:00:00Z,25.2130,-80.5330,1.5,23.04,11111222 
ENP,ioos.station.NOAA.NDBC:TCVF1:1,2019-08-06T14:00:00Z,25.2130,-80.5330,1.5,22.13,11111222 
ENP,ioos.station.NOAA.NDBC:TCVF1:1,2019-08-06T15:00:00Z,25.2130,-80.5330,1.5,22.13,11111222 
ENP,ioos.station.NOAA.NDBC:TCVF1:1,2019-08-06T16:00:00Z,25.2130,-80.5330,1.5,27.91,11111222 
ENP,ioos.station.NOAA.NDBC:TCVF1:1,2019-08-06T17:00:00Z,25.2130,-80.5330,1.5,28.48,11111222 
ENP,ioos.station.NOAA.NDBC:TCVF1:1,2019-08-06T18:00:00Z,25.2130,-80.5330,1.5,32.46,11111222 
ENP,ioos.station.NOAA.NDBC:TCVF1:1,2019-08-06T19:00:00Z,25.2130,-80.5330,1.5,32.68,11111222 
ENP,ioos.station.NOAA.NDBC:TCVF1:1,2019-08-06T20:00:00Z,25.2130,-80.5330,1.5,33.63,11111222 
ENP,ioos.station.NOAA.NDBC:TCVF1:1,2019-08-06T21:00:00Z,25.2130,-80.5330,1.5,24.16,11111222 
ENP,ioos.station.NOAA.NDBC:TCVF1:1,2019-08-06T22:00:00Z,25.2130,-80.5330,1.5,23.18,11111222 
ENP,ioos.station.NOAA.NDBC:TCVF1:1,2019-08-06T23:00:00Z,25.2130,-80.5330,1.5,30.42,11111222 
ENP,ioos.station.NOAA.NDBC:TCVF1:1,2019-08-07T01:00:00Z,25.2130,-80.5330,1.5,34.22,11111222 
ENP,ioos.station.NOAA.NDBC:TCVF1:1,2019-08-07T03:00:00Z,25.2130,-80.5330,1.5,21.99,11111222 
ENP,ioos.station.NOAA.NDBC:TCVF1:1,2019-08-07T04:00:00Z,25.2130,-80.5330,1.5,33.19,11111222 
ENP,ioos.station.NOAA.NDBC:TCVF1:1,2019-08-07T05:00:00Z,25.2130,-80.5330,1.5,32.24,11111222 
ENP,ioos.station.NOAA.NDBC:TCVF1:1,2019-08-07T06:00:00Z,25.2130,-80.5330,1.5,21.58,11111222 
ENP,ioos.station.NOAA.NDBC:TCVF1:1,2019-08-07T07:00:00Z,25.2130,-80.5330,1.5,21.1,11111222 
ENP,ioos.station.NOAA.NDBC:TCVF1:1,2019-08-07T08:00:00Z,25.2130,-80.5330,1.5,33.19,11111222 
ENP,ioos.station.NOAA.NDBC:TCVF1:1,2019-08-07T09:00:00Z,25.2130,-80.5330,1.5,36.43,11111222 
ENP,ioos.station.NOAA.NDBC:TCVF1:1,2019-08-07T10:00:00Z,25.2130,-80.5330,1.5,33.92,11111222 
ENP,ioos.station.NOAA.NDBC:TCVF1:1,2019-08-07T11:00:00Z,25.2130,-80.5330,1.5,32.31,11111222 
ENP,ioos.station.NOAA.NDBC:TCVF1:1,2019-08-07T12:00:00Z,25.2130,-80.5330,1.5,32.09,11111222 
ENP,ioos.station.NOAA.NDBC:TCVF1:1,2019-08-07T13:00:00Z,25.2130,-80.5330,1.5,26.7,11111222 
ENP,ioos.station.NOAA.NDBC:TCVF1:1,2019-08-07T14:00:00Z,25.2130,-80.5330,1.5,22.34,11111222 
ENP,ioos.station.NOAA.NDBC:TCVF1:1,2019-08-07T15:00:00Z,25.2130,-80.5330,1.5,21.16,11111222 
ENP,ioos.station.NOAA.NDBC:TCVF1:1,2019-08-07T16:00:00Z,25.2130,-80.5330,1.5,20.89,11111222 
ENP,ioos.station.NOAA.NDBC:TCVF1:1,2019-08-07T17:00:00Z,25.2130,-80.5330,1.5,31.58,11111222 
ENP,ioos.station.NOAA.NDBC:TCVF1:1,2019-08-07T18:00:00Z,25.2130,-80.5330,1.5,30.5,11111222 
ENP,ioos.station.NOAA.NDBC:TCVF1:1,2019-08-07T19:00:00Z,25.2130,-80.5330,1.5,28.98,11111222 
ENP,ioos.station.NOAA.NDBC:TCVF1:1,2019-08-07T20:00:00Z,25.2130,-80.5330,1.5,32.97,11111222 
ENP,ioos.station.NOAA.NDBC:TCVF1:1,2019-08-07T21:00:00Z,25.2130,-80.5330,1.5,31.87,11111222 
ENP,ioos.station.NOAA.NDBC:TCVF1:1,2019-08-07T22:00:00Z,25.2130,-80.5330,1.5,28.91,11111222 
ENP,ioos.station.NOAA.NDBC:TCVF1:1,2019-08-07T23:00:00Z,25.2130,-80.5330,1.5,32.17,11111222 
ENP,ioos.station.NOAA.NDBC:TCVF1:1,2019-08-08T00:00:00Z,25.2130,-80.5330,1.5,25.78,11111222 
ENP,ioos.station.NOAA.NDBC:TCVF1:1,2019-08-08T01:00:00Z,25.2130,-80.5330,1.5,20.34,11111222 
ENP,ioos.station.NOAA.NDBC:TCVF1:1,2019-08-08T03:00:00Z,25.2130,-80.5330,1.5,19.72,11111222 
ENP,ioos.station.NOAA.NDBC:TCVF1:1,2019-08-08T04:00:00Z,25.2130,-80.5330,1.5,19.65,11111222 
ENP,ioos.station.NOAA.NDBC:TCVF1:1,2019-08-08T05:00:00Z,25.2130,-80.5330,1.5,29.34,11111222 
ENP,ioos.station.NOAA.NDBC:TCVF1:1,2019-08-08T06:00:00Z,25.2130,-80.5330,1.5,32.31,11111222 
ENP,ioos.station.NOAA.NDBC:TCVF1:1,2019-08-08T07:00:00Z,25.2130,-80.5330,1.5,27.84,11111222 
ENP,ioos.station.NOAA.NDBC:TCVF1:1,2019-08-08T08:00:00Z,25.2130,-80.5330,1.5,19.65,11111222 
ENP,ioos.station.NOAA.NDBC:TCVF1:1,2019-08-08T09:00:00Z,25.2130,-80.5330,1.5,19.38,11111222 
ENP,ioos.station.NOAA.NDBC:TCVF1:1,2019-08-08T10:00:00Z,25.2130,-80.5330,1.5,29.77,11111222 
ENP,ioos.station.NOAA.NDBC:TCVF1:1,2019-08-08T11:00:00Z,25.2130,-80.5330,1.5,31.29,11111222 
ENP,ioos.station.NOAA.NDBC:TCVF1:1,2019-08-08T12:00:00Z,25.2130,-80.5330,1.5,31.29,11111222 
ENP,ioos.station.NOAA.NDBC:TCVF1:1,2019-08-08T13:00:00Z,25.2130,-80.5330,1.5,20.06,11111222 
ENP,ioos.station.NOAA.NDBC:TCVF1:1,2019-08-08T14:00:00Z,25.2130,-80.5330,1.5,19.86,11111222 
ENP,ioos.station.NOAA.NDBC:TCVF1:1,2019-08-08T16:00:00Z,25.2130,-80.5330,1.5,19.11,11111222 
ENP,ioos.station.NOAA.NDBC:TCVF1:1,2019-08-08T17:00:00Z,25.2130,-80.5330,1.5,18.76,11111222 
ENP,ioos.station.NOAA.NDBC:TCVF1:1,2019-08-08T18:00:00Z,25.2130,-80.5330,1.5,26.7,11111222 
ENP,ioos.station.NOAA.NDBC:TCVF1:1,2019-08-08T19:00:00Z,25.2130,-80.5330,1.5,30.79,11111222 
ENP,ioos.station.NOAA.NDBC:TCVF1:1,2019-08-08T20:00:00Z,25.2130,-80.5330,1.5,30.79,11111222 
ENP,ioos.station.NOAA.NDBC:TCVF1:1,2019-08-08T21:00:00Z,25.2130,-80.5330,1.5,19.99,11111222 
ENP,ioos.station.NOAA.NDBC:TCVF1:1,2019-08-08T22:00:00Z,25.2130,-80.5330,1.5,28.27,11111222 
ENP,ioos.station.NOAA.NDBC:TCVF1:1,2019-08-08T23:00:00Z,25.2130,-80.5330,1.5,24.86,11111222 
ENP,ioos.station.NOAA.NDBC:TCVF1:1,2019-08-09T00:00:00Z,25.2130,-80.5330,1.5,31.73,11111222 
ENP,ioos.station.NOAA.NDBC:TCVF1:1,2019-08-09T01:00:00Z,25.2130,-80.5330,1.5,32.24,11111222 
ENP,ioos.station.NOAA.NDBC:TCVF1:1,2019-08-09T03:00:00Z,25.2130,-80.5330,1.5,26.98,11111222 
ENP,ioos.station.NOAA.NDBC:TCVF1:1,2019-08-09T04:00:00Z,25.2130,-80.5330,1.5,33.04,11111222 
ENP,ioos.station.NOAA.NDBC:TCVF1:1,2019-08-09T05:00:00Z,25.2130,-80.5330,1.5,24.72,11111222 
ENP,ioos.station.NOAA.NDBC:TCVF1:1,2019-08-09T06:00:00Z,25.2130,-80.5330,1.5,27.05,11111222 
ENP,ioos.station.NOAA.NDBC:TCVF1:1,2019-08-09T07:00:00Z,25.2130,-80.5330,1.5,33.19,11111222 
ENP,ioos.station.NOAA.NDBC:TCVF1:1,2019-08-09T08:00:00Z,25.2130,-80.5330,1.5,33.77,11111222 
ENP,ioos.station.NOAA.NDBC:TCVF1:1,2019-08-09T09:00:00Z,25.2130,-80.5330,1.5,34.0,11111222 
ENP,ioos.station.NOAA.NDBC:TCVF1:1,2019-08-09T10:00:00Z,25.2130,-80.5330,1.5,34.0,11111222 
ENP,ioos.station.NOAA.NDBC:TCVF1:1,2019-08-09T11:00:00Z,25.2130,-80.5330,1.5,32.6,11111222 
ENP,ioos.station.NOAA.NDBC:TCVF1:1,2019-08-09T12:00:00Z,25.2130,-80.5330,1.5,21.51,11111222 
ENP,ioos.station.NOAA.NDBC:TCVF1:1,2019-08-09T13:00:00Z,25.2130,-80.5330,1.5,18.15,11111222 
ENP,ioos.station.NOAA.NDBC:TCVF1:1,2019-08-09T14:00:00Z,25.2130,-80.5330,1.5,29.85,11111222 
ENP,ioos.station.NOAA.NDBC:TCVF1:1,2019-08-09T15:00:00Z,25.2130,-80.5330,1.5,34.14,11111222 
ENP,ioos.station.NOAA.NDBC:TCVF1:1,2019-08-09T16:00:00Z,25.2130,-80.5330,1.5,34.36,11111222 
ENP,ioos.station.NOAA.NDBC:TCVF1:1,2019-08-09T17:00:00Z,25.2130,-80.5330,1.5,18.56,11111222 
ENP,ioos.station.NOAA.NDBC:TCVF1:1,2019-08-09T18:00:00Z,25.2130,-80.5330,1.5,33.63,11111222 
ENP,ioos.station.NOAA.NDBC:TCVF1:1,2019-08-09T19:00:00Z,25.2130,-80.5330,1.5,18.83,11111222 
ENP,ioos.station.NOAA.NDBC:TCVF1:1,2019-08-09T20:00:00Z,25.2130,-80.5330,1.5,15.53,11111222 
ENP,ioos.station.NOAA.NDBC:TCVF1:1,2019-08-09T21:00:00Z,25.2130,-80.5330,1.5,17.41,11111222 
ENP,ioos.station.NOAA.NDBC:TCVF1:1,2019-08-09T22:00:00Z,25.2130,-80.5330,1.5,17.88,11111222 
ENP,ioos.station.NOAA.NDBC:TCVF1:1,2019-08-09T23:00:00Z,25.2130,-80.5330,1.5,17.88,11111222 
ENP,ioos.station.NOAA.NDBC:TCVF1:1,2019-08-10T00:00:00Z,25.2130,-80.5330,1.5,17.61,11111222 
ENP,ioos.station.NOAA.NDBC:TCVF1:1,2019-08-10T01:00:00Z,25.2130,-80.5330,1.5,32.02,11111222 
ENP,ioos.station.NOAA.NDBC:TCVF1:1,2019-08-10T03:00:00Z,25.2130,-80.5330,1.5,18.29,11111222 
ENP,ioos.station.NOAA.NDBC:TCVF1:1,2019-08-10T04:00:00Z,25.2130,-80.5330,1.5,33.41,11111222 
ENP,ioos.station.NOAA.NDBC:TCVF1:1,2019-08-10T05:00:00Z,25.2130,-80.5330,1.5,17.81,11111222 
ENP,ioos.station.NOAA.NDBC:TCVF1:1,2019-08-10T06:00:00Z,25.2130,-80.5330,1.5,19.52,11111222 
ENP,ioos.station.NOAA.NDBC:TCVF1:1,2019-08-10T07:00:00Z,25.2130,-80.5330,1.5,16.73,11111222 
ENP,ioos.station.NOAA.NDBC:TCVF1:1,2019-08-10T08:00:00Z,25.2130,-80.5330,1.5,17.81,11111222 
ENP,ioos.station.NOAA.NDBC:TCVF1:1,2019-08-10T09:00:00Z,25.2130,-80.5330,1.5,16.33,11111222 
ENP,ioos.station.NOAA.NDBC:TCVF1:1,2019-08-10T10:00:00Z,25.2130,-80.5330,1.5,18.56,11111222 
ENP,ioos.station.NOAA.NDBC:TCVF1:1,2019-08-10T11:00:00Z,25.2130,-80.5330,1.5,19.17,11111222 
ENP,ioos.station.NOAA.NDBC:TCVF1:1,2019-08-10T12:00:00Z,25.2130,-80.5330,1.5,16.47,11111222 
ENP,ioos.station.NOAA.NDBC:TCVF1:1,2019-08-10T13:00:00Z,25.2130,-80.5330,1.5,27.55,11111222 
ENP,ioos.station.NOAA.NDBC:TCVF1:1,2019-08-10T14:00:00Z,25.2130,-80.5330,1.5,29.49,11111222 
ENP,ioos.station.NOAA.NDBC:TCVF1:1,2019-08-10T15:00:00Z,25.2130,-80.5330,1.5,34.8,11111222 
ENP,ioos.station.NOAA.NDBC:TCVF1:1,2019-08-10T16:00:00Z,25.2130,-80.5330,1.5,35.32,11111222 
ENP,ioos.station.NOAA.NDBC:TCVF1:1,2019-08-10T17:00:00Z,25.2130,-80.5330,1.5,35.17,11111222 
ENP,ioos.station.NOAA.NDBC:TCVF1:1,2019-08-10T18:00:00Z,25.2130,-80.5330,1.5,27.41,11111222 
ENP,ioos.station.NOAA.NDBC:TCVF1:1,2019-08-10T19:00:00Z,25.2130,-80.5330,1.5,17.75,11111222 
ENP,ioos.station.NOAA.NDBC:TCVF1:1,2019-08-10T20:00:00Z,25.2130,-80.5330,1.5,16.4,11111222 
ENP,ioos.station.NOAA.NDBC:TCVF1:1,2019-08-10T21:00:00Z,25.2130,-80.5330,1.5,22.2,11111222 
ENP,ioos.station.NOAA.NDBC:TCVF1:1,2019-08-10T22:00:00Z,25.2130,-80.5330,1.5,16.33,11111222 
ENP,ioos.station.NOAA.NDBC:TCVF1:1,2019-08-10T23:00:00Z,25.2130,-80.5330,1.5,16.67,11111222 
ENP,ioos.station.NOAA.NDBC:TCVF1:1,2019-08-11T00:00:00Z,25.2130,-80.5330,1.5,27.98,11111222 
ENP,ioos.station.NOAA.NDBC:TCVF1:1,2019-08-11T01:00:00Z,25.2130,-80.5330,1.5,16.53,11111222 
ENP,ioos.station.NOAA.NDBC:TCVF1:1,2019-08-11T03:00:00Z,25.2130,-80.5330,1.5,17.75,11111222 
ENP,ioos.station.NOAA.NDBC:TCVF1:1,2019-08-11T04:00:00Z,25.2130,-80.5330,1.5,17.48,11111222 
ENP,ioos.station.NOAA.NDBC:TCVF1:1,2019-08-11T05:00:00Z,25.2130,-80.5330,1.5,16.87,11111222 
ENP,ioos.station.NOAA.NDBC:TCVF1:1,2019-08-11T06:00:00Z,25.2130,-80.5330,1.5,16.6,11111222 
ENP,ioos.station.NOAA.NDBC:TCVF1:1,2019-08-11T07:00:00Z,25.2130,-80.5330,1.5,16.2,11111222 
ENP,ioos.station.NOAA.NDBC:TCVF1:1,2019-08-11T08:00:00Z,25.2130,-80.5330,1.5,15.66,11111222 
ENP,ioos.station.NOAA.NDBC:TCVF1:1,2019-08-11T09:00:00Z,25.2130,-80.5330,1.5,15.2,11111222 
ENP,ioos.station.NOAA.NDBC:TCVF1:1,2019-08-11T10:00:00Z,25.2130,-80.5330,1.5,15.06,11111222 
ENP,ioos.station.NOAA.NDBC:TCVF1:1,2019-08-11T11:00:00Z,25.2130,-80.5330,1.5,34.29,11111222 
ENP,ioos.station.NOAA.NDBC:TCVF1:1,2019-08-11T12:00:00Z,25.2130,-80.5330,1.5,16.26,11111222 
ENP,ioos.station.NOAA.NDBC:TCVF1:1,2019-08-11T13:00:00Z,25.2130,-80.5330,1.5,15.46,11111222 
ENP,ioos.station.NOAA.NDBC:TCVF1:1,2019-08-11T14:00:00Z,25.2130,-80.5330,1.5,33.48,11111222 
ENP,ioos.station.NOAA.NDBC:TCVF1:1,2019-08-11T15:00:00Z,25.2130,-80.5330,1.5,35.17,11111222 
ENP,ioos.station.NOAA.NDBC:TCVF1:1,2019-08-11T16:00:00Z,25.2130,-80.5330,1.5,32.53,11111222 
ENP,ioos.station.NOAA.NDBC:TCVF1:1,2019-08-11T17:00:00Z,25.2130,-80.5330,1.5,33.26,11111222 
ENP,ioos.station.NOAA.NDBC:TCVF1:1,2019-08-11T18:00:00Z,25.2130,-80.5330,1.5,33.77,11111222 
ENP,ioos.station.NOAA.NDBC:TCVF1:1,2019-08-11T19:00:00Z,25.2130,-80.5330,1.5,33.92,11111222 
ENP,ioos.station.NOAA.NDBC:TCVF1:1,2019-08-11T20:00:00Z,25.2130,-80.5330,1.5,34.0,11111222 
ENP,ioos.station.NOAA.NDBC:TCVF1:1,2019-08-11T21:00:00Z,25.2130,-80.5330,1.5,34.07,11111222 
ENP,ioos.station.NOAA.NDBC:TCVF1:1,2019-08-11T22:00:00Z,25.2130,-80.5330,1.5,20.27,11111222 
ENP,ioos.station.NOAA.NDBC:TCVF1:1,2019-08-11T23:00:00Z,25.2130,-80.5330,1.5,16.4,11111222 
ENP,ioos.station.NOAA.NDBC:TCVF1:1,2019-08-12T00:00:00Z,25.2130,-80.5330,1.5,31.8,11111222 
ENP,ioos.station.NOAA.NDBC:TCVF1:1,2019-08-12T01:00:00Z,25.2130,-80.5330,1.5,18.76,11111222 
ENP,ioos.station.NOAA.NDBC:TCVF1:1,2019-08-12T03:00:00Z,25.2130,-80.5330,1.5,33.33,11111222 
ENP,ioos.station.NOAA.NDBC:TCVF1:1,2019-08-12T04:00:00Z,25.2130,-80.5330,1.5,33.92,11111222 
ENP,ioos.station.NOAA.NDBC:TCVF1:1,2019-08-12T05:00:00Z,25.2130,-80.5330,1.5,34.29,11111222 
ENP,ioos.station.NOAA.NDBC:TCVF1:1,2019-08-12T06:00:00Z,25.2130,-80.5330,1.5,24.09,11111222 
ENP,ioos.station.NOAA.NDBC:TCVF1:1,2019-08-12T07:00:00Z,25.2130,-80.5330,1.5,19.65,11111222 
ENP,ioos.station.NOAA.NDBC:TCVF1:1,2019-08-12T08:00:00Z,25.2130,-80.5330,1.5,17.27,11111222 
ENP,ioos.station.NOAA.NDBC:TCVF1:1,2019-08-12T09:00:00Z,25.2130,-80.5330,1.5,16.87,11111222 
ENP,ioos.station.NOAA.NDBC:TCVF1:1,2019-08-12T10:00:00Z,25.2130,-80.5330,1.5,16.0,11111222 
ENP,ioos.station.NOAA.NDBC:TCVF1:1,2019-08-12T11:00:00Z,25.2130,-80.5330,1.5,15.66,11111222 
ENP,ioos.station.NOAA.NDBC:TCVF1:1,2019-08-12T12:00:00Z,25.2130,-80.5330,1.5,27.2,11111222 
ENP,ioos.station.NOAA.NDBC:TCVF1:1,2019-08-12T13:00:00Z,25.2130,-80.5330,1.5,21.58,11111222 
ENP,ioos.station.NOAA.NDBC:TCVF1:1,2019-08-12T14:00:00Z,25.2130,-80.5330,1.5,32.97,11111222 
ENP,ioos.station.NOAA.NDBC:TCVF1:1,2019-08-12T15:00:00Z,25.2130,-80.5330,1.5,34.14,11111222 
ENP,ioos.station.NOAA.NDBC:TCVF1:1,2019-08-12T16:00:00Z,25.2130,-80.5330,1.5,31.87,11111222 
ENP,ioos.station.NOAA.NDBC:TCVF1:1,2019-08-12T17:00:00Z,25.2130,-80.5330,1.5,32.53,11111222 